Flag for Switzerland Weather past 2 weeks in Carouge, Geneva, Switzerland

Now
45 °F

Cool.


Feels Like: 45 °F
Forecast: 45 / 72 °F
Wind: 2 mph from Northwest

Location: Geneve-Cointrin

Current Time: Apr 22, 2015 at 6:26:59 AM

Latest Report: Apr 22, 2015 at 4:00 AM


Visibility: N/A

Pressure: 30.33 "Hg

Humidity: 81%

Dew point: 40 °F

Location of CarougeLocation

Historic Weather in Carouge — Graph

°F

Carouge temperature yesterday

Maximum temperature yesterday: 68 °F (at 6:00 PM)
Minimum temperature yesterday: 41 °F (at 7:00 AM)
Average temperature yesterday: 56 °F

Past Weeks' High & Low Weather Summary

 TemperatureHumidityPressure
High72 °F (Apr 15, 4:00 PM)95% (Apr 18, 4:00 AM)30.55 "Hg (Apr 18, 4:00 AM)
Low32 °F (Apr 8, 7:00 AM)17% (Apr 8, 5:00 PM)29.96 "Hg (Apr 17, 6:00 AM)
Average53 °F56%30.25 "Hg
* Reported Apr 7 4:00 AM — Apr 22 4:00 AM, Carouge, Weather by CustomWeather, © 2015

Note: Actual official high and low records may vary slightly from our data, if they occured in-between our weather recording intervals... More about our weather records

Advertising

Carouge weather history for previous 24 hours

 ConditionsComfort  
Time TempWeatherWind HumidityBarometerVisibility
4:00 AM
Wed, Apr 22
45 °FCool.2 mph81%30.33 "HgN/A
3:00 AM44 °FQuite cool.1 mph84%30.34 "HgN/A
2:00 AM47 °FClear.No wind77%30.33 "Hg19 mi
1:00 AM49 °FCool.1 mph75%30.33 "HgN/A
12:00 AM50 °FCool.2 mph71%30.32 "HgN/A
10:00 PM
Tue, Apr 21
55 °FCool.1 mph63%30.30 "HgN/A
9:00 PM59 °FRefreshingly cool.2 mph52%30.28 "HgN/A
8:00 PM66 °FPassing clouds.5 mph37%30.25 "Hg22 mi
7:00 PM68 °FMild.6 mph35%30.24 "HgN/A
6:00 PM68 °FMild.7 mph33%30.24 "HgN/A
5:00 PM68 °FPassing clouds.9 mph33%30.25 "Hg19 mi
4:00 PM67 °FMild.9 mph36%30.27 "HgN/A
3:00 PM65 °FMild.8 mph36%30.28 "HgN/A
2:00 PM63 °FPassing clouds.12 mph35%30.29 "Hg19 mi
1:00 PM62 °FMild.12 mph36%30.31 "HgN/A
12:00 PM60 °FRefreshingly cool.7 mph42%30.31 "HgN/A
10:00 AM55 °FCool.7 mph50%30.32 "HgN/A
9:00 AM52 °FCool.3 mph56%30.32 "HgN/A
8:00 AM45 °FPassing clouds.1 mph75%30.33 "Hg31 mi
7:00 AM41 °FQuite cool.2 mph81%30.32 "HgN/A
6:00 AM42 °FQuite cool.2 mph77%30.30 "HgN/A
Weather by CustomWeather, © 2015

See weather overviewHow to use our weather pages